TimeCDT,TemperatureF,Dew PointF,Humidity,Sea Level PressureIn,VisibilityMPH,Wind Direction,Wind SpeedMPH,Gust SpeedMPH,PrecipitationIn,Events,Conditions,WindDirDegrees,DateUTC
12:15 AM,40.1,37.8,91,29.83,4.0,North,12.7,18.4,N/A,,Overcast,350,2013-03-16 05:15:00
12:35 AM,40.1,37.9,92,29.84,3.0,NNW,10.4,19.6,N/A,,Overcast,340,2013-03-16 05:35:00
12:55 AM,40.3,37.9,91,29.84,3.0,North,12.7,19.6,N/A,,Overcast,350,2013-03-16 05:55:00
1:15 AM,40.1,37.6,91,29.85,3.0,North,12.7,20.7,N/A,,Overcast,350,2013-03-16 06:15:00
1:35 AM,40.1,37.6,91,29.85,4.0,North,12.7,17.3,N/A,,Overcast,350,2013-03-16 06:35:00
1:55 AM,39.9,37.4,91,29.86,3.0,North,15.0,23.0,N/A,,Overcast,350,2013-03-16 06:55:00
2:15 AM,39.7,37.4,91,29.87,2.5,NNW,15.0,20.7,N/A,,Overcast,340,2013-03-16 07:15:00
2:35 AM,39.2,36.9,91,29.87,3.0,North,13.8,21.9,N/A,,Overcast,350,2013-03-16 07:35:00
2:55 AM,39.2,36.9,91,29.88,4.0,NNW,15.0,18.4,N/A,,Overcast,340,2013-03-16 07:55:00
3:15 AM,38.5,36.3,92,29.89,4.0,North,16.1,25.3,N/A,,Overcast,350,2013-03-16 08:15:00
3:35 AM,38.3,36.5,93,29.90,4.0,NNW,15.0,19.6,N/A,,Overcast,340,2013-03-16 08:35:00
3:55 AM,37.0,35.1,93,29.91,4.0,NNW,18.4,24.2,N/A,,Overcast,340,2013-03-16 08:55:00
4:15 AM,36.1,33.8,91,29.92,5.0,NNW,15.0,25.3,N/A,,Overcast,340,2013-03-16 09:15:00
4:35 AM,35.8,33.1,90,29.93,7.0,NNW,18.4,26.5,N/A,,Overcast,340,2013-03-16 09:35:00
4:55 AM,35.2,32.5,90,29.95,7.0,NNW,15.0,26.5,N/A,,Overcast,340,2013-03-16 09:55:00
5:15 AM,34.9,32.0,89,29.96,7.0,NNW,17.3,23.0,N/A,,Overcast,340,2013-03-16 10:15:00
5:35 AM,34.7,31.6,89,29.97,7.0,North,16.1,24.2,N/A,,Overcast,350,2013-03-16 10:35:00
5:55 AM,34.7,31.6,89,29.98,7.0,NNW,9.2,-,N/A,,Overcast,340,2013-03-16 10:55:00
6:15 AM,34.0,31.6,91,30.00,7.0,NNW,13.8,18.4,N/A,,Overcast,340,2013-03-16 11:15:00
6:35 AM,34.0,30.6,87,30.02,10.0,North,11.5,20.7,N/A,,Overcast,360,2013-03-16 11:35:00
6:55 AM,33.6,30.4,88,30.02,7.0,North,16.1,23.0,N/A,,Overcast,350,2013-03-16 11:55:00
7:15 AM,33.3,29.8,87,30.01,7.0,North,17.3,23.0,N/A,,Overcast,350,2013-03-16 12:15:00
7:35 AM,32.9,29.3,87,30.02,7.0,North,12.7,19.6,N/A,,Overcast,350,2013-03-16 12:35:00
7:55 AM,32.9,29.3,87,30.04,10.0,NNW,11.5,18.4,N/A,,Overcast,340,2013-03-16 12:55:00
8:15 AM,32.0,28.4,87,30.05,5.0,NNW,15.0,21.9,N/A,,Overcast,340,2013-03-16 13:15:00
8:35 AM,32.0,28.2,86,30.05,7.0,North,13.8,21.9,N/A,,Overcast,350,2013-03-16 13:35:00
8:55 AM,31.6,27.5,85,30.05,7.0,North,16.1,21.9,N/A,,Overcast,350,2013-03-16 13:55:00
9:15 AM,31.1,27.1,85,30.05,7.0,North,15.0,24.2,N/A,,Overcast,350,2013-03-16 14:15:00
9:35 AM,31.1,27.1,85,30.06,7.0,North,10.4,17.3,N/A,,Overcast,350,2013-03-16 14:35:00
9:55 AM,31.1,27.0,85,30.06,7.0,North,15.0,21.9,N/A,,Overcast,360,2013-03-16 14:55:00
10:15 AM,31.1,26.6,83,30.07,7.0,North,12.7,19.6,N/A,,Overcast,350,2013-03-16 15:15:00
10:35 AM,31.3,26.6,83,30.08,7.0,North,11.5,20.7,N/A,,Overcast,350,2013-03-16 15:35:00
10:55 AM,31.5,26.6,82,30.07,10.0,North,10.4,17.3,N/A,,Overcast,350,2013-03-16 15:55:00
11:15 AM,31.5,26.6,82,30.09,10.0,North,10.4,20.7,N/A,,Overcast,350,2013-03-16 16:15:00
11:35 AM,32.0,26.8,81,30.09,10.0,NNE,15.0,20.7,N/A,,Overcast,20,2013-03-16 16:35:00
11:55 AM,32.0,26.4,80,30.10,10.0,North,11.5,17.3,N/A,,Overcast,10,2013-03-16 16:55:00
12:15 PM,32.2,26.6,80,30.10,10.0,North,11.5,17.3,N/A,,Overcast,360,2013-03-16 17:15:00
12:35 PM,32.0,26.4,80,30.10,10.0,North,12.7,-,N/A,,Overcast,10,2013-03-16 17:35:00
12:55 PM,32.4,26.1,78,30.10,10.0,North,13.8,18.4,N/A,,Overcast,10,2013-03-16 17:55:00
1:15 PM,32.7,26.6,78,30.11,10.0,North,11.5,18.4,N/A,,Overcast,10,2013-03-16 18:15:00
1:55 PM,32.7,25.7,75,30.11,10.0,North,9.2,17.3,N/A,,Overcast,10,2013-03-16 18:55:00
2:15 PM,33.3,25.9,74,30.11,10.0,NNE,11.5,-,N/A,,Overcast,20,2013-03-16 19:15:00
2:35 PM,33.1,25.3,73,30.10,10.0,North,12.7,-,N/A,,Overcast,10,2013-03-16 19:35:00
2:55 PM,33.3,25.3,73,30.09,10.0,North,10.4,17.3,N/A,,Overcast,10,2013-03-16 19:55:00
3:15 PM,33.4,25.5,73,30.09,10.0,North,11.5,-,N/A,,Overcast,10,2013-03-16 20:15:00
3:35 PM,33.4,25.7,73,30.09,10.0,NNE,11.5,-,N/A,,Overcast,30,2013-03-16 20:35:00
3:55 PM,33.1,25.7,74,30.08,10.0,NE,11.5,19.6,N/A,,Overcast,40,2013-03-16 20:55:00
4:15 PM,33.8,25.3,71,30.08,10.0,NNE,10.4,17.3,N/A,,Overcast,20,2013-03-16 21:15:00
4:35 PM,33.8,25.3,71,30.08,10.0,North,9.2,-,N/A,,Overcast,10,2013-03-16 21:35:00
4:55 PM,34.2,25.0,69,30.08,10.0,North,8.1,-,N/A,,Overcast,360,2013-03-16 21:55:00
5:15 PM,34.2,25.0,69,30.08,10.0,NNE,10.4,-,N/A,,Overcast,20,2013-03-16 22:15:00
5:35 PM,33.8,25.0,70,30.09,10.0,NNE,10.4,-,N/A,,Overcast,20,2013-03-16 22:35:00
5:55 PM,33.1,24.8,72,30.09,10.0,NNE,9.2,-,N/A,,Overcast,20,2013-03-16 22:55:00
6:15 PM,32.9,24.8,72,30.09,10.0,NNE,9.2,-,N/A,,Overcast,30,2013-03-16 23:15:00
6:35 PM,32.4,24.4,73,30.09,10.0,NNE,9.2,-,N/A,,Overcast,30,2013-03-16 23:35:00
6:55 PM,32.4,24.6,73,30.10,10.0,NE,10.4,-,N/A,,Overcast,50,2013-03-16 23:55:00
7:15 PM,32.0,24.6,74,30.10,10.0,NNE,9.2,-,N/A,,Overcast,30,2013-03-17 00:15:00
7:35 PM,32.0,25.0,75,30.11,10.0,NE,4.6,-,N/A,,Overcast,40,2013-03-17 00:35:00
7:55 PM,32.0,24.8,75,30.11,10.0,NE,5.8,-,N/A,,Overcast,40,2013-03-17 00:55:00
8:15 PM,32.0,25.0,75,30.11,10.0,NE,6.9,-,N/A,,Overcast,50,2013-03-17 01:15:00
8:35 PM,32.0,24.8,75,30.13,10.0,NNE,6.9,-,N/A,,Overcast,30,2013-03-17 01:35:00
8:55 PM,32.0,25.0,75,30.14,10.0,NE,5.8,-,N/A,,Overcast,40,2013-03-17 01:55:00
9:15 PM,31.8,25.0,76,30.15,10.0,NNE,6.9,-,N/A,,Overcast,20,2013-03-17 02:15:00
9:35 PM,31.8,24.8,75,30.16,10.0,NNE,5.8,-,N/A,,Overcast,20,2013-03-17 02:35:00
9:55 PM,31.6,25.0,76,30.17,10.0,NNE,8.1,-,N/A,,Overcast,20,2013-03-17 02:55:00
10:15 PM,31.5,24.8,76,30.17,10.0,NNE,10.4,-,N/A,,Overcast,30,2013-03-17 03:15:00
10:35 PM,31.1,24.8,77,30.16,10.0,NNE,9.2,-,N/A,,Overcast,30,2013-03-17 03:35:00
10:55 PM,30.9,25.0,79,30.17,10.0,NNE,8.1,-,N/A,,Overcast,30,2013-03-17 03:55:00
11:15 PM,30.7,24.8,79,30.16,10.0,NNE,8.1,-,N/A,,Overcast,30,2013-03-17 04:15:00
11:35 PM,30.2,24.4,79,30.16,10.0,NNE,11.5,16.1,N/A,,Overcast,30,2013-03-17 04:35:00
11:55 PM,30.2,24.3,79,30.16,10.0,NNE,11.5,-,N/A,,Overcast,30,2013-03-17 04:55:00